AirNav   Air Wisconsin pilot careers
 
 1285 users online  

PAAN Gold King Creek Airport
Fairbanks, Alaska, USA

GOING TO FAIRBANKS?


FAA INFORMATION EFFECTIVE 23 MAY 2019

Location

FAA Identifier: AK7
Lat/Long: 64-11-53.0000N / 147-55-43.0000W
64-11.883333N / 147-55.716667W
64.1980556 / -147.9286111
(estimated)
Elevation: 1720 ft. / 524 m (estimated)
Variation: 25E (1965)
From city: 39 miles SE of FAIRBANKS, AK
Time zone: UTC -8 (UTC -9 during Standard Time)
Zip code: 99743

Airport Operations

Airport use: Open to the public
Activation date: 02/2001
Control tower: no
ARTCC: ANCHORAGE CENTER
FSS: FAIRBANKS FLIGHT SERVICE STATION [907-474-0788]
NOTAMs facility: FAI (NOTAM-D service available)
Attendance: UNATNDD
Wind indicator: yes
Segmented circle: no

Airport Communications

CTAF: 122.9

Nearby radio navigation aids

VOR radial/distance  VOR name  Freq  Var
FAIr156/36.2FAIRBANKS VORTAC108.6021E
ENNr107/37.9NENANA VORTAC115.8021E

 
NDB name  Hdg/Dist  Freq  Var  ID
ICE POOL107/36.452518EICW .. -.-. .--

Airport Services

Runway Information

Runway 9/27

Dimensions: 2558 x 17 ft. / 780 x 5 m
Surface: gravel/dirt, in fair condition
ROCKS UP TO 6 INCHES ON RY SFC.
RUNWAY 9  RUNWAY 27
Latitude: 64-11.993708N64-11.772323N
Longitude: 147-56.125273W147-55.307022W
Traffic pattern: leftleft
Runway heading: 097 magnetic, 122 true277 magnetic, 302 true
Obstructions: 32 ft. trees25 ft. brush, 90 ft. left and right of centerline

Airport Ownership and Management from official FAA records

Ownership: Publicly-owned
Owner: ALASKA DOT&PF NORTHERN REGION
2301 PEGER ROAD
FAIRBANKS, AK 99709
Phone 907-451-2200
Manager: TOM WILLIAMS
2301 PEGER ROAD
FAIRBANKS, AK 99709
Phone (907) 451-5280

Airport Operational Statistics

Aircraft based on the field: 1
Single engine airplanes: 1
    
Aircraft operations: 50/year *
100% local general aviation
* for 12-month period ending 31 December 2014

Additional Remarks

RY CONDITION NOT MONITORED; RECOMMEND VISUAL INSP PRIOR TO LANDING.
NO SVCS AVBL.
40 FT TREES ON BOTH SIDES OF RY WITHIN 50 FT OF CENTERLINE.
RY SUITABLE FOR HIGH WING ACFT ONLY.
RY 27 HAS A 500 FT SAFETY AREA WITH TREES UP TO 3 FT GROWING ON SFC.

Instrument Procedures

There are no published instrument procedures at PAAN.

Some nearby airports with instrument procedures:

PAHV - Healy River Airport (34 nm SW)
PAEI - Eielson Air Force Base (35 nm NE)
PANN - Nenana Municipal Airport (36 nm NW)
PAFA - Fairbanks International Airport (37 nm N)
PAFB - Ladd Army Airfield (39 nm N)
 
Loc | Ops | Rwys | IFR | FBO | Links
Com | Nav | Svcs | Stats | Notes

Crowley
 
Area around PAAN (Gold King Creek Airport)
 
Road maps at: MapQuest Bing Google
 
Aerial photo
WARNING: Photo may not be current or correct
Aerial photo of PAAN (Gold King Creek Airport)
Photo taken 18-Feb-2012
looking west.

Do you have a better or more recent aerial photo of Gold King Creek Airport that you would like to share? If so, please send us your photo.

 
Sectional chart

 
Airport distance calculator
Flying to Gold King Creek Airport? Find the distance to fly.

From to PAAN

Sunrise and sunset
Times for 18-Jun-2019
 Local
(UTC-8)
 Zulu
(UTC)
Morning civil twilight++
Sunrise03:1911:19
Sunset00:2708:27
Evening civil twilight++

Current date and time
Zulu (UTC)  18-Jun-2019 21:31:55
Local (UTC-8)  18-Jun-2019 13:31:55
 
METAR
PAEI 
35nm NE 
182056Z 26003KT 7SM BKN040 BKN100 21/12 A2980 RMK AO2A SLP094 T02060115 CHINO RWY32 $
PANN 
37nm NW 
182053Z AUTO 34006KT 10SM BKN100 20/09 A2982 RMK AO2 SLP101 T02000094 51010 TSNO
PAFA 
37nm N 
182053Z VRB03KT 10SM SCT060 SCT090 BKN200 22/11 A2980 RMK AO2 SLP093 T02170106 51004
PAIN 
38nm SW 
182056Z AUTO 36008KT 340V050 10SM BKN080 16/08 A2985 RMK AO2 SLP121 T01610083 53007
PAFB 
39nm N 
182058Z 19003KT 10SM CLR 22/09 A2980 RMK AO2A SLP092 T02180093 52005 $
TAF
PAEI 
35nm NE 
182000Z 1820/2002 28009KT 8000 -SHRA VCTS BKN040CB QNH2978INS BECMG 1904/1905 VRB06KT 9999 NSW SCT050 QNH2982INS BECMG 1920/1921 27009KT 8000 -SHRA VCTS BKN040CB QNH2980INS TEMPO 1921/2002 27012G20KT 6000 -TSRA TX23/1900Z TN09/1903Z
PAFA 
37nm N 
181740Z 1818/1924 35008KT P6SM BKN080 FM182100 30005KT P6SM VCSH BKN050 FM190000 26005KT P6SM VCTS BKN050CB FM190800 29003KT P6SM BKN080
PAFB 
39nm N 
181500Z 1815/1921 04005KT 9999 BKN080 QNH2975INS BECMG 1821/1822 03007KT 9999 VCSH SCT055 BKN080 QNH2977INS TS OMTNS TEMPO 1901/1904 -SHRA BECMG 1903/1904 25005KT 9999 NSW SCT055 SCT080 QNH2984INS BECMG 1912/1913 24003KT 9999 FEW055 SCT100 QNH2995INS TX23/1901Z TN12/1913Z
NOTAMs
Click for the latest NOTAMs
NOTAMs are issued by the DoD/FAA and will open in a separate window not controlled by AirNav.

 

 
 

Would you like to see your business listed on this page?

 If your business provides an interesting product or service to pilots, flight crews, aircraft, or users of the Gold King Creek Airport, you should consider listing it here.  To start the listing process, click on the button below
 
Add a business
 

Other Pages about Gold King Creek Airport

Update a link
 
Copyright © AirNav, LLC. All rights reserved. Privacy Policy  Contact